Regional Weather Roundup
Issued by NWS Charleston, SC

Current Version | Previous Version | Graphics & Text | Print | Product List | Glossary On
Versions: 1 2 3 4 5 6 7 8 9 10 11 12 13 14 15 16 17 18 19 20 21 22 23 24 25 26 27 28 29 30 31 32 33 34 35 36 37 38 39 40 41 42 43 44 45 46 47 48 49 50
000
ASUS42 KCHS 292312
RWRCHS

REGIONAL WEATHER ROUNDUP
NATIONAL WEATHER SERVICE CHARLESTON SC
700 PM EDT SAT APR 29 2017

NOTE: "FAIR" INDICATES FEW OR NO CLOUDS BELOW 12,000 FEET WITH NO
SIGNIFICANT WEATHER AND/OR OBSTRUCTIONS TO VISIBILITY.

NOT ALL STATIONS ARE QUALITY CONTROLLED. USE DATA WITH CAUTION...
ESPECIALLY DEWPOINT OBSERVATIONS.

SCZ027-030-031-034>040-042>050-300000-
...SOUTHEAST SOUTH CAROLINA...

CITY           SKY/WX    TMP DP  RH WIND       PRES   REMARKS
N CHARLESTON   MOSUNNY   78  68  71 S8        30.18S
WATERFRONT PRK   N/A     77  73  87 S8        30.16S
JOHNS ISLAND   CLOUDY    79  72  78 S9        30.18F
PINOPOLIS        N/A     82  70  65 S5        30.10R
MONCKS CORNER  FAIR      79  66  65 SW9       30.17S
SUMMERVILLE    FAIR      79  68  69 S7        30.18S
BEAUFORT MCAS  PTSUNNY   77  71  82 S8        30.17S
BEAUFORT ARPT  FAIR      77  70  78 S6        30.17S HAZE
HILTON HEAD IS NOT AVBL
WALTERBORO     CLEAR     79  66  65 S8        30.17S
ALLENDALE      FAIR      82  66  57 S10G18    30.13R

...SOUTHERN MIDLANDS AND PEE DEE...

CITY           SKY/WX    TMP DP  RH WIND       PRES   REMARKS
GEORGETOWN     FAIR      77  70  78 SW9       30.19F
KINGSTREE      FAIR      81  68  65 SE8G17    30.16S
ORANGEBURG     CLOUDY    82  68  62 S12       30.14S
BARNWELL       FAIR      84  72  65 SE10G17   30.13R
AIKEN          FAIR      82  66  57 SE9       30.15F
MANNING        FAIR      81  68  65 S12G23    30.16R
COLUMBIA       PTSUNNY   86  67  52 S10       30.11F
SUMTER         CLOUDY    84  68  58 S9        30.12S
FLORENCE       PTSUNNY   85  68  56 SW8       30.15R
MYRTLE BEACH   SUNNY     77  72  83 S17       30.19R
N MYRTLE BEACH SUNNY     76  72  87 S12       30.19R

$$

GAZ063-065-086>088-099>101-113>116-118-119-134>141-150-300000-
...SOUTHEAST GEORGIA...

CITY           SKY/WX    TMP DP  RH WIND       PRES   REMARKS
SAVANNAH ARPT  CLOUDY    80  68  66 SE14      30.15S
HUNTER AAF     PTSUNNY   78  74  89 S12G17    30.14R
FORT STEWART   PTSUNNY   80  68  67 SE9       30.12S
STATESBORO     MOSUNNY   83  66  54 SE8       30.13R
SYLVANIA       MOCLDY   N/A N/A N/A SE8       30.14S
CLAXTON        FAIR      82  71  69 E9        30.12S

...CSRA...CENTRAL AND FAR SOUTHEAST GEORGIA...

CITY           SKY/WX    TMP DP  RH WIND       PRES   REMARKS
THOMSON        CLOUDY    84  67  57 SW7       30.14F
AUGUSTA-BUSH   PTSUNNY   85  71  63 SE9       30.09S HX  90
AUGUSTA-DANIEL PTSUNNY   86  65  49 SE9       30.11S
SWAINSBORO     CLOUDY    86  64  48 SE13      30.11S
VIDALIA        PTSUNNY   86  68  54 SE10      30.10S
EASTMAN        FAIR      89  49  25 S5        30.10S
HAZLEHURST     FAIR      86  70  58 SE8G17    30.08S HX  91
ALMA           MOSUNNY   85  71  63 SE10      30.08F HX  90
WAYCROSS       PTSUNNY   88  76  65 SE17      30.09S HX  99
JESUP          FAIR      82  68  61 SE6       30.13R
BAXLEY         FAIR      86  73  66 SE12G18   30.09S HX  93
BRUNSWICK      MOSUNNY   81  72  74 SE12G20   30.15S
SAINT SIMONS   MOSUNNY   79  70  74 SE14      30.14F

$$

SCZ027-028-034-036>038-045-046-048>050-GAZ119-141-300000-
...LAKE AND SUPPLEMENTAL COASTAL OBSERVATIONS...

STATION/POSITION TIME  TEMP    WIND        PRES    WAVE   SWELL
                       AIR SEA DIR/SP/G            HT/PER HT/PER/DIR
                 (UTC) (F)     (DEG/KT/KT) (MB)    (FT/S) (FT/S/D)
WINYAH BAY       NOT AVBL
LAKE MURRAY      2220   83     150/  4/  5 1019.0F
ACE BASIN NERRS  NOT AVBL
FORT PULASKI     2248   78 77  150/  6/ 10 1021.8F
SAPELO ISLAND    2200   81     140/ 10     1021.0

$$

ANZ835-935-AMZ111-154-330-350-352-354-370-450-454-472-300000-
...C-MAN AND BUOY OBSERVATIONS...

STATION/POSITION TIME  TEMP    WIND        PRES    WAVE   SWELL
                       AIR SEA DIR/SP/G            HT/PER HT/PER/DIR
                 (UTC) (F)     (DEG/KT/KT) (MB)    (FT/S) (FT/S/D)
BUOY 41004       2250   77 76  170/  8/ 10 1022.1F   3/ 6   3/150/ 6
BUOY 41008       2150   76 76  130/ 10/ 10 1021.3    3/ 5   3/130/ 5
FOLLY BEACH CMAN 2200   77     170/  9/ 11 1023.0S
CAPERS NEARSHORE 2208   78 76  190/ 10/ 14 1022.2F
FRIPP NEARSHORE  2208   77 77  150/  8/ 10 1021.7F


STATION/POSITION TIME  TEMP    WIND        PRES    WAVE   SWELL
                       AIR SEA DIR/SP/G            HT/PER HT/PER/DIR
                 (UTC) (F)     (DEG/KT/KT) (MB)    (FT/S) (FT/S/D)
5E ST. MARYS GA  2230      76                N/A     3/ 6
FRYING PAN BUOY  2250   76 74  200/  8/ 10 1022.8F   3/ 7   3/130/ 7
BUOY 41025       2250   77 76  220/ 16/ 17 1022.5R   4/ 7   2/150/ 7
CAPE LOOKOUT NC  2300   75     200/ 10/ 12 1022.4R
BUOY 41002       2150   75 76  150/ 14/ 16 1024.4    3/ 8   2/ 60/ 8
BUOY 41010       2250   78 78  120/ 14/ 16 1021.6F   4/ 7   3/100/ 7
ST AUGUSTINE FL  2300   76 80  120/ 15/ 16 1021.4F


$$




USA.gov is the U.S. government's official web portal to all federal, state and local government web resources and services.